| time (UTC) | temp F | wind direction | speed knots | gust knots | rain 1hr in | rain 24hr in | rain mn in | humidity % | barometer mb |
| 20260506114000 | 75 | 155 | 0.0 | 0.9 | 0.00 | 0.00 | 0.00 | 89 | 1008.3 |
| 20260506113500 | 74 | 200 | 0.0 | 1.7 | 0.00 | 0.00 | 0.00 | 89 | 1008.2 |
| 20260506112459 | 74 | 162 | 0.9 | 2.6 | 0.00 | 0.00 | 0.00 | 89 | 1008.1 |
| 20260506112001 | 74 | 150 | 0.9 | 3.5 | 0.00 | 0.00 | 0.00 | 89 | 1008.0 |
| 20260506111514 | 74 | 150 | 0.9 | 4.3 | 0.00 | 0.00 | 0.00 | 89 | 1007.9 |
| 20260506111000 | 74 | 160 | 1.7 | 4.3 | 0.00 | 0.00 | 0.00 | 88 | 1007.7 |
| 20260506110459 | 74 | 141 | 0.9 | 2.6 | 0.00 | 0.00 | 0.00 | 88 | 1007.7 |
| 20260506110020 | 74 | 166 | 0.9 | 1.7 | 0.00 | 0.00 | 0.00 | 88 | 1007.8 |
| 20260506105458 | 74 | 156 | 0.9 | 4.3 | 0.00 | 0.00 | 0.00 | 88 | 1007.8 |
| 20260506104959 | 74 | 179 | 0.9 | 4.3 | 0.00 | 0.00 | 0.00 | 88 | 1007.7 |
| 20260506104002 | 75 | 126 | 0.9 | 4.3 | 0.00 | 0.00 | 0.00 | 87 | 1007.6 |
| 20260506103458 | 75 | 175 | 0.9 | 2.6 | 0.00 | 0.00 | 0.00 | 87 | 1007.6 |
| 20260506103017 | 75 | 170 | 0.9 | 2.6 | 0.00 | 0.00 | 0.00 | 87 | 1007.7 |
| 20260506102458 | 75 | 171 | 0.9 | 4.3 | 0.00 | 0.00 | 0.00 | 87 | 1007.7 |
| 20260506101959 | 75 | 162 | 0.9 | 4.3 | 0.00 | 0.00 | 0.00 | 86 | 1007.7 |
| 20260506101513 | 75 | 215 | 0.9 | 2.6 | 0.00 | 0.00 | 0.00 | 86 | 1007.7 |
| 20260506100458 | 75 | 217 | 0.9 | 3.5 | 0.00 | 0.00 | 0.00 | 86 | 1007.7 |
| 20260506095459 | 75 | 173 | 1.7 | 5.2 | 0.00 | 0.00 | 0.00 | 86 | 1007.5 |
| 20260506095000 | 75 | 166 | 1.7 | 4.3 | 0.00 | 0.00 | 0.00 | 86 | 1007.5 |
| 20260506094514 | 75 | 189 | 0.9 | 4.3 | 0.00 | 0.00 | 0.00 | 86 | 1007.3 |
| 20260506094001 | 75 | 153 | 1.7 | 4.3 | 0.00 | 0.00 | 0.00 | 86 | 1007.3 |
| 20260506093022 | 75 | 143 | 1.7 | 5.2 | 0.00 | 0.00 | 0.00 | 86 | 1007.2 |
| 20260506092501 | 76 | 147 | 1.7 | 6.1 | 0.00 | 0.00 | 0.00 | 86 | 1007.2 |
| 20260506092001 | 76 | 166 | 1.7 | 6.1 | 0.00 | 0.00 | 0.00 | 85 | 1007.3 |
| 20260506091514 | 76 | 129 | 1.7 | 6.1 | 0.00 | 0.00 | 0.00 | 85 | 1007.3 |
| 20260506090500 | 76 | 100 | 2.6 | 7.0 | 0.00 | 0.00 | 0.00 | 85 | 1007.3 |
| 20260506090023 | 76 | 139 | 1.7 | 7.0 | 0.00 | 0.00 | 0.00 | 85 | 1007.4 |
| 20260506085500 | 76 | 164 | 1.7 | 7.0 | 0.00 | 0.00 | 0.00 | 85 | 1007.5 |
| 20260506085001 | 76 | 156 | 1.7 | 6.1 | 0.00 | 0.00 | 0.00 | 85 | 1007.5 |
| 20260506084001 | 76 | 129 | 1.7 | 5.2 | 0.00 | 0.00 | 0.00 | 85 | 1007.5 |
| 20260506083500 | 76 | 348 | 1.7 | 5.2 | 0.00 | 0.00 | 0.00 | 85 | 1007.5 |
| 20260506083026 | 76 | 173 | 1.7 | 4.3 | 0.00 | 0.00 | 0.00 | 85 | 1007.6 |
| 20260506082459 | 76 | 121 | 1.7 | 4.3 | 0.00 | 0.00 | 0.00 | 85 | 1007.6 |
| 20260506082001 | 76 | 233 | 1.7 | 6.1 | 0.00 | 0.00 | 0.00 | 85 | 1007.5 |
| 20260506081515 | 76 | 151 | 1.7 | 6.1 | 0.00 | 0.00 | 0.00 | 85 | 1007.6 |
| 20260506080459 | 76 | 210 | 1.7 | 6.1 | 0.00 | 0.00 | 0.00 | 85 | 1007.7 |
| 20260506073459 | 76 | 191 | 1.7 | 4.3 | 0.00 | 0.00 | 0.00 | 85 | 1008.1 |
| 20260506073023 | 76 | 109 | 1.7 | 5.2 | 0.00 | 0.00 | 0.00 | 85 | 1008.1 |
| 20260506072459 | 76 | 195 | 1.7 | 5.2 | 0.00 | 0.00 | 0.00 | 85 | 1008.1 |
| 20260506072000 | 76 | 177 | 1.7 | 6.1 | 0.00 | 0.00 | 0.00 | 85 | 1008.2 |
| 20260506071514 | 76 | 147 | 2.6 | 6.1 | 0.00 | 0.00 | 0.00 | 85 | 1008.2 |
| 20260506071000 | 76 | 175 | 2.6 | 6.1 | 0.00 | 0.00 | 0.00 | 85 | 1008.2 |
| 20260506070459 | 76 | 195 | 2.6 | 6.1 | 0.00 | 0.00 | 0.00 | 85 | 1008.2 |
| 20260506062458 | 76 | 136 | 2.6 | 6.1 | 0.00 | 0.00 | 0.00 | 84 | 1008.3 |
| 20260506061513 | 76 | 178 | 2.6 | 7.0 | 0.00 | 0.00 | 0.00 | 84 | 1008.4 |
| 20260506060959 | 76 | 156 | 2.6 | 7.0 | 0.00 | 0.00 | 0.00 | 84 | 1008.4 |
| 20260506060458 | 76 | 158 | 2.6 | 7.8 | 0.00 | 0.00 | 0.00 | 84 | 1008.5 |
| 20260506051004 | 77 | 153 | 1.7 | 6.1 | 0.00 | 0.00 | 0.00 | 83 | 1008.5 |
| 20260506045004 | 77 | 189 | 2.6 | 8.7 | 0.00 | 0.00 | 0.00 | 83 | 1008.2 |
| 20260506044518 | 77 | 164 | 2.6 | 8.7 | 0.00 | 0.00 | 0.00 | 82 | 1008.3 |
| 20260506044005 | 77 | 143 | 2.6 | 6.1 | 0.00 | 0.00 | 0.00 | 82 | 1008.5 |
| 20260506043504 | 77 | 133 | 2.6 | 7.0 | 0.00 | 0.00 | 0.00 | 82 | 1008.6 |
| 20260506043026 | 77 | 235 | 2.6 | 6.1 | 0.00 | 0.00 | 0.00 | 82 | 1008.6 |
| 20260506042503 | 77 | 146 | 2.6 | 6.1 | 0.00 | 0.00 | 0.00 | 82 | 1008.5 |
| 20260506042005 | 77 | 160 | 2.6 | 7.0 | 0.00 | 0.00 | 0.00 | 82 | 1008.4 |
| 20260506041518 | 77 | 164 | 2.6 | 7.0 | 0.00 | 0.00 | 0.00 | 81 | 1008.4 |
| 20260506041004 | 77 | 127 | 1.7 | 6.1 | 0.00 | 0.00 | 0.00 | 81 | 1008.4 |
| 20260506040504 | 78 | 249 | 2.6 | 6.1 | 0.00 | 0.00 | 0.00 | 81 | 1008.3 |
| 20260506035504 | 78 | 123 | 2.6 | 5.2 | 0.00 | 0.00 | 0.00 | 81 | 1008.2 |
| 20260506035005 | 78 | 154 | 1.7 | 7.0 | 0.00 | 0.00 | 0.00 | 81 | 1008.1 |
| 20260506034518 | 78 | 166 | 1.7 | 7.0 | 0.00 | 0.00 | 0.00 | 80 | 1008.1 |
| 20260506034003 | 78 | 217 | 1.7 | 6.1 | 0.00 | 0.00 | 0.00 | 80 | 1008.2 |
| 20260506033503 | 78 | 135 | 1.7 | 7.0 | 0.00 | 0.00 | 0.00 | 80 | 1008.2 |
| 20260506033030 | 78 | 147 | 1.7 | 7.0 | 0.00 | 0.00 | 0.00 | 80 | 1008.1 |
| 20260506032503 | 78 | 162 | 2.6 | 7.0 | 0.00 | 0.00 | 0.00 | 80 | 1008.0 |
| 20260506032004 | 78 | 201 | 2.6 | 7.0 | 0.00 | 0.00 | 0.00 | 80 | 1007.9 |
| 20260506031005 | 78 | 162 | 2.6 | 8.7 | 0.00 | 0.00 | 0.00 | 80 | 1007.6 |
| 20260506030503 | 78 | 127 | 2.6 | 7.8 | 0.00 | 0.00 | 0.00 | 80 | 1007.5 |
| 20260506030029 | 78 | 133 | 2.6 | 8.7 | 0.00 | 0.00 | 0.00 | 80 | 1007.6 |
| 20260506025503 | 78 | 137 | 3.5 | 8.7 | 0.00 | 0.00 | 0.00 | 80 | 1007.6 |
| 20260506025006 | 78 | 143 | 2.6 | 9.6 | 0.00 | 0.00 | 0.00 | 79 | 1007.5 |
| 20260506024518 | 78 | 133 | 3.5 | 8.7 | 0.00 | 0.00 | 0.00 | 79 | 1007.5 |
| 20260506024004 | 78 | 201 | 3.5 | 8.7 | 0.00 | 0.00 | 0.00 | 79 | 1007.4 |
| 20260506023504 | 78 | 178 | 2.6 | 7.8 | 0.00 | 0.00 | 0.00 | 79 | 1007.2 |
| 20260506023027 | 78 | 157 | 3.5 | 8.7 | 0.00 | 0.00 | 0.00 | 79 | 1007.1 |
| 20260506022503 | 78 | 171 | 3.5 | 8.7 | 0.00 | 0.00 | 0.00 | 79 | 1007.0 |
| 20260506022005 | 78 | 178 | 3.5 | 7.8 | 0.00 | 0.00 | 0.00 | 79 | 1007.1 |
| 20260506021518 | 79 | 137 | 3.5 | 7.8 | 0.00 | 0.00 | 0.00 | 78 | 1007.1 |
| 20260506021003 | 79 | 208 | 3.5 | 7.8 | 0.00 | 0.00 | 0.00 | 78 | 1007.1 |
| 20260506020026 | 79 | 145 | 1.7 | 6.1 | 0.00 | 0.00 | 0.00 | 77 | 1006.9 |
| 20260506015502 | 79 | 236 | 1.7 | 5.2 | 0.00 | 0.00 | 0.00 | 77 | 1006.9 |
| 20260506014518 | 79 | 235 | 1.7 | 7.8 | 0.00 | 0.00 | 0.00 | 77 | 1006.8 |
| 20260506014003 | 79 | 158 | 1.7 | 5.2 | 0.00 | 0.00 | 0.00 | 77 | 1006.7 |
| 20260506013503 | 79 | 200 | 2.6 | 5.2 | 0.00 | 0.00 | 0.00 | 77 | 1006.6 |
| 20260506013026 | 79 | 150 | 2.6 | 5.2 | 0.00 | 0.00 | 0.00 | 76 | 1006.6 |
| 20260506012502 | 79 | 212 | 2.6 | 8.7 | 0.00 | 0.00 | 0.00 | 76 | 1006.4 |
| 20260506012004 | 79 | 162 | 2.6 | 10.4 | 0.00 | 0.00 | 0.00 | 76 | 1006.3 |
| 20260506011517 | 79 | 159 | 1.7 | 7.8 | 0.00 | 0.00 | 0.00 | 76 | 1006.2 |
| 20260506011003 | 79 | 148 | 1.7 | 6.1 | 0.00 | 0.00 | 0.00 | 75 | 1006.2 |
| 20260506010503 | 79 | 195 | 1.7 | 5.2 | 0.00 | 0.00 | 0.00 | 74 | 1006.1 |
| 20260506010027 | 80 | 168 | 2.6 | 6.1 | 0.00 | 0.00 | 0.00 | 74 | 1006.0 |
| 20260506004517 | 80 | 209 | 2.6 | 7.8 | 0.00 | 0.00 | 0.00 | 74 | 1005.9 |
| 20260506004003 | 80 | 181 | 2.6 | 7.8 | 0.00 | 0.00 | 0.00 | 74 | 1005.9 |
| 20260506003025 | 80 | 155 | 2.6 | 7.0 | 0.00 | 0.00 | 0.00 | 75 | 1006.0 |
| 20260506002502 | 80 | 176 | 2.6 | 7.0 | 0.00 | 0.00 | 0.00 | 75 | 1005.9 |
| 20260506002003 | 80 | 128 | 2.6 | 7.0 | 0.00 | 0.00 | 0.00 | 75 | 1005.7 |
| 20260506001517 | 80 | 184 | 2.6 | 7.0 | 0.00 | 0.00 | 0.00 | 74 | 1005.7 |
| 20260506001003 | 81 | 150 | 2.6 | 7.0 | 0.00 | 0.00 | 0.00 | 74 | 1005.8 |
| 20260506000026 | 81 | 37 | 2.6 | 6.1 | 0.00 | 0.00 | 0.00 | 73 | 1005.9 |
| 20260505235502 | 81 | 178 | 2.6 | 8.7 | 0.00 | 0.00 | 0.00 | 73 | 1005.9 |
| 20260505235004 | 81 | 200 | 3.5 | 8.7 | 0.00 | 0.00 | 0.00 | 73 | 1005.8 |
| 20260505234517 | 81 | 177 | 3.5 | 7.0 | 0.00 | 0.00 | 0.00 | 72 | 1005.8 |
| 20260505234003 | 81 | 152 | 3.5 | 7.0 | 0.00 | 0.00 | 0.00 | 73 | 1005.7 |
| 20260505233503 | 81 | 173 | 3.5 | 7.8 | 0.00 | 0.00 | 0.00 | 73 | 1005.7 |
| 20260505233025 | 81 | 155 | 3.5 | 8.7 | 0.00 | 0.00 | 0.00 | 73 | 1005.8 |
| 20260505232503 | 81 | 191 | 3.5 | 8.7 | 0.00 | 0.00 | 0.00 | 73 | 1005.7 |
| 20260505232003 | 81 | 146 | 2.6 | 7.8 | 0.00 | 0.00 | 0.00 | 73 | 1005.7 |
| 20260505231002 | 81 | 172 | 2.6 | 7.0 | 0.00 | 0.00 | 0.00 | 73 | 1005.7 |
| 20260505230502 | 81 | 191 | 3.5 | 7.0 | 0.00 | 0.00 | 0.00 | 72 | 1005.8 |
| 20260505230025 | 82 | 192 | 3.5 | 8.7 | 0.00 | 0.00 | 0.00 | 72 | 1005.8 |
| 20260505225501 | 82 | 168 | 3.5 | 8.7 | 0.00 | 0.00 | 0.00 | 72 | 1005.9 |
| 20260505224516 | 82 | 151 | 3.5 | 9.6 | 0.00 | 0.00 | 0.00 | 72 | 1005.8 |
| 20260505224002 | 82 | 174 | 3.5 | 9.6 | 0.00 | 0.00 | 0.00 | 72 | 1005.7 |
| 20260505223501 | 82 | 180 | 3.5 | 8.7 | 0.00 | 0.00 | 0.00 | 72 | 1005.8 |
| 20260505223027 | 82 | 202 | 4.3 | 8.7 | 0.00 | 0.00 | 0.00 | 72 | 1005.8 |
| 20260505221002 | 83 | 181 | 3.5 | 9.6 | 0.00 | 0.00 | 0.00 | 72 | 1005.9 |
| 20260505220501 | 83 | 156 | 3.5 | 8.7 | 0.00 | 0.00 | 0.00 | 72 | 1005.9 |
| 20260505220025 | 83 | 156 | 3.5 | 7.0 | 0.00 | 0.00 | 0.00 | 71 | 1006.0 |
| 20260505215501 | 83 | 146 | 4.3 | 9.6 | 0.00 | 0.00 | 0.00 | 71 | 1006.1 |
| 20260505215002 | 83 | 84 | 4.3 | 9.6 | 0.00 | 0.00 | 0.00 | 71 | 1006.2 |
| 20260505214516 | 82 | 167 | 3.5 | 9.6 | 0.00 | 0.00 | 0.00 | 71 | 1006.2 |
| 20260505214002 | 83 | 133 | 2.6 | 7.8 | 0.00 | 0.00 | 0.00 | 72 | 1006.3 |
| 20260505213501 | 83 | 216 | 3.5 | 7.8 | 0.00 | 0.00 | 0.00 | 72 | 1006.3 |
| 20260505212501 | 82 | 165 | 3.5 | 11.3 | 0.00 | 0.00 | 0.00 | 72 | 1006.4 |
| 20260505212001 | 83 | 231 | 4.3 | 11.3 | 0.00 | 0.00 | 0.00 | 71 | 1006.4 |
| 20260505211516 | 83 | 161 | 3.5 | 10.4 | 0.00 | 0.00 | 0.00 | 71 | 1006.4 |
| 20260505211002 | 83 | 156 | 3.5 | 7.8 | 0.00 | 0.00 | 0.00 | 71 | 1006.5 |
| 20260505210501 | 83 | 320 | 3.5 | 7.8 | 0.00 | 0.00 | 0.00 | 71 | 1006.6 |
| 20260505210025 | 83 | 158 | 2.6 | 7.8 | 0.00 | 0.00 | 0.00 | 72 | 1006.8 |
| 20260505205501 | 83 | 148 | 2.6 | 6.1 | 0.00 | 0.00 | 0.00 | 71 | 1006.8 |
| 20260505205002 | 83 | 183 | 3.5 | 7.8 | 0.00 | 0.00 | 0.00 | 71 | 1006.8 |
| 20260505204516 | 82 | 75 | 4.3 | 9.6 | 0.00 | 0.00 | 0.00 | 72 | 1006.8 |
| 20260505204001 | 83 | 220 | 4.3 | 10.4 | 0.00 | 0.00 | 0.00 | 70 | 1006.9 |
| 20260505203501 | 83 | 135 | 3.5 | 10.4 | 0.00 | 0.00 | 0.00 | 70 | 1007.0 |
| 20260505203025 | 83 | 243 | 2.6 | 7.0 | 0.00 | 0.00 | 0.00 | 70 | 1006.9 |
| 20260505202501 | 83 | 177 | 3.5 | 8.7 | 0.00 | 0.00 | 0.00 | 70 | 1007.0 |
| 20260505202002 | 83 | 166 | 4.3 | 8.7 | 0.00 | 0.00 | 0.00 | 70 | 1007.2 |
| 20260505201515 | 83 | 244 | 3.5 | 8.7 | 0.00 | 0.00 | 0.00 | 71 | 1007.3 |
| 20260505201004 | 83 | 200 | 3.5 | 9.6 | 0.00 | 0.00 | 0.00 | 71 | 1007.5 |
| 20260505200501 | 82 | 210 | 3.5 | 9.6 | 0.00 | 0.00 | 0.00 | 71 | 1007.6 |
| 20260505195005 | 82 | 202 | 3.5 | 10.4 | 0.00 | 0.00 | 0.00 | 71 | 1007.6 |
| 20260505194515 | 82 | 326 | 4.3 | 8.7 | 0.00 | 0.00 | 0.00 | 70 | 1007.7 |
| 20260505193027 | 82 | 270 | 4.3 | 8.7 | 0.00 | 0.00 | 0.00 | 72 | 1007.7 |
| 20260505192501 | 82 | 200 | 4.3 | 8.7 | 0.00 | 0.00 | 0.00 | 72 | 1007.9 |
| 20260505192001 | 82 | 181 | 3.5 | 8.7 | 0.00 | 0.00 | 0.00 | 73 | 1007.8 |
| 20260505191515 | 82 | 281 | 3.5 | 9.6 | 0.00 | 0.00 | 0.00 | 74 | 1007.9 |
| 20260505190503 | 82 | 118 | 3.5 | 13.0 | 0.00 | 0.00 | 0.00 | 73 | 1007.8 |
| 20260505190025 | 82 | 185 | 6.1 | 13.9 | 0.00 | 0.00 | 0.00 | 71 | 1007.8 |
| 20260505185459 | 82 | 146 | 5.2 | 13.9 | 0.00 | 0.00 | 0.00 | 70 | 1007.8 |
| 20260505185001 | 83 | 187 | 3.5 | 13.0 | 0.00 | 0.00 | 0.00 | 70 | 1008.0 |
| 20260505184515 | 83 | 199 | 3.5 | 10.4 | 0.00 | 0.00 | 0.00 | 71 | 1008.0 |
| 20260505184001 | 82 | 241 | 3.5 | 10.4 | 0.00 | 0.00 | 0.00 | 72 | 1008.0 |
| 20260505183500 | 82 | 211 | 3.5 | 9.6 | 0.00 | 0.00 | 0.00 | 72 | 1008.1 |
| 20260505183027 | 81 | 252 | 3.5 | 7.8 | 0.00 | 0.00 | 0.00 | 73 | 1008.1 |
| 20260505182500 | 81 | 191 | 4.3 | 9.6 | 0.00 | 0.00 | 0.00 | 74 | 1008.2 |
| 20260505181001 | 81 | 171 | 2.6 | 9.6 | 0.00 | 0.00 | 0.00 | 74 | 1008.2 |
| 20260505180500 | 81 | 241 | 3.5 | 9.6 | 0.00 | 0.00 | 0.00 | 74 | 1008.3 |
| 20260505180024 | 80 | 189 | 3.5 | 8.7 | 0.00 | 0.00 | 0.00 | 76 | 1008.4 |
| 20260505175500 | 80 | 184 | 2.6 | 8.7 | 0.00 | 0.00 | 0.00 | 76 | 1008.4 |
| 20260505175001 | 79 | 214 | 2.6 | 7.0 | 0.00 | 0.00 | 0.00 | 77 | 1008.5 |
| 20260505174514 | 79 | 206 | 3.5 | 8.7 | 0.00 | 0.00 | 0.00 | 76 | 1008.5 |
| 20260505173500 | 80 | 125 | 3.5 | 10.4 | 0.00 | 0.00 | 0.00 | 75 | 1008.6 |
| 20260505172002 | 79 | 228 | 3.5 | 10.4 | 0.00 | 0.00 | 0.00 | 76 | 1008.7 |
| 20260505170500 | 80 | 206 | 2.6 | 9.6 | 0.00 | 0.00 | 0.00 | 76 | 1008.6 |
| 20260505170020 | 79 | 169 | 2.6 | 7.8 | 0.00 | 0.00 | 0.00 | 77 | 1008.8 |
| 20260505165500 | 79 | 268 | 3.5 | 13.9 | 0.00 | 0.00 | 0.00 | 79 | 1008.9 |
| 20260505165001 | 78 | 234 | 3.5 | 13.9 | 0.00 | 0.00 | 0.00 | 79 | 1009.0 |
| 20260505164001 | 77 | 153 | 2.6 | 7.8 | 0.00 | 0.00 | 0.00 | 82 | 1008.9 |
| 20260505163500 | 77 | 152 | 2.6 | 6.1 | 0.00 | 0.00 | 0.00 | 82 | 1008.8 |
| 20260505163023 | 77 | 233 | 2.6 | 5.2 | 0.00 | 0.00 | 0.00 | 81 | 1008.8 |
| 20260505162459 | 77 | 228 | 2.6 | 8.7 | 0.00 | 0.00 | 0.00 | 80 | 1008.8 |
| 20260505161515 | 78 | 200 | 2.6 | 11.3 | 0.00 | 0.00 | 0.00 | 80 | 1008.8 |
| 20260505161001 | 78 | 161 | 2.6 | 11.3 | 0.00 | 0.00 | 0.00 | 80 | 1008.7 |
| 20260505153023 | 76 | 233 | 2.6 | 9.6 | 0.00 | 0.00 | 0.00 | 81 | 1008.5 |
| 20260505152500 | 76 | 146 | 2.6 | 8.7 | 0.00 | 0.00 | 0.00 | 81 | 1008.5 |
| 20260505152001 | 76 | 169 | 2.6 | 8.7 | 0.00 | 0.00 | 0.00 | 82 | 1008.5 |
| 20260505151515 | 76 | 118 | 2.6 | 7.0 | 0.00 | 0.00 | 0.00 | 82 | 1008.5 |
| 20260505151000 | 76 | 227 | 2.6 | 6.1 | 0.00 | 0.00 | 0.00 | 82 | 1008.5 |
| 20260505140500 | 75 | 181 | 4.3 | 9.6 | 0.00 | 0.00 | 0.00 | 83 | 1008.1 |
| 20260505124514 | 72 | 175 | 1.7 | 5.2 | 0.00 | 0.00 | 0.00 | 86 | 1007.8 |
| 20260505124000 | 72 | 164 | 1.7 | 5.2 | 0.00 | 0.00 | 0.00 | 87 | 1008.0 |
| 20260505123025 | 72 | 189 | 1.7 | 6.1 | 0.00 | 0.00 | 0.00 | 87 | 1008.0 |
| 20260505122001 | 72 | 194 | 1.7 | 4.3 | 0.00 | 0.00 | 0.00 | 87 | 1007.9 |
| 20260505121515 | 71 | 184 | 1.7 | 4.3 | 0.00 | 0.00 | 0.00 | 87 | 1008.0 |
| 20260505121001 | 71 | 168 | 1.7 | 6.1 | 0.00 | 0.00 | 0.00 | 87 | 1007.9 |
| 20260505120501 | 71 | 180 | 1.7 | 6.1 | 0.00 | 0.00 | 0.00 | 87 | 1007.7 |
| 20260505120023 | 71 | 170 | 1.7 | 6.1 | 0.00 | 0.00 | 0.00 | 87 | 1007.6 |
| 20260505115459 | 71 | 206 | 1.7 | 5.2 | 0.00 | 0.00 | 0.00 | 87 | 1007.6 |
| 20260505114513 | 71 | 162 | 1.7 | 3.5 | 0.00 | 0.00 | 0.00 | 87 | 1007.4 |